Tracking 17782 objects as of 26-July-2016
HD Live streaming from Space Station
objects crossing your sky now

GLOBALSTAR M082

Track GLOBALSTAR M082 now!
10-day predictions
GLOBALSTAR M082 is classified as:


NORAD ID: 38042
Int'l Code: 2011-080C
Perigee: 1,420.4 km
Apogee: 1,421.1 km
Inclination: 52.0 °
Period: 114.1 minutes
Semi major axis: 7791 km
RCS: 4.8173 m2 (large)
Launch date: December 28, 2011
Source: Globalstar (GLOB)
Launch site: TYURATAM MISSILE AND SPACE COMPLEX (TTMTR)
Your satellite tracking list
Your tracking list is empty





NASA's NSSDC Master Catalog

Two Line Element Set (TLE):
1 38042U 11080C   16207.48249310 -.00000095  00000-0  46253-4 0  9993
2 38042  52.0055 174.4133 0000459  20.7166 135.4953 12.62263174213391
Source of the keplerian elements: AFSPC

N2YO: 693